Weather History for Manteo, NC

Change the Weather History Date:

Monday, May 13, 2013

  Actual Average Record
Temperature  
Mean Temperature 57 °F -  
Max Temperature 62 °F 71 °F 90 °F (1980)
Min Temperature 51 °F 58 °F 47 °F (1972)
Degree Days  
Heating Degree Days 8    
Growing Degree Days 7 (Base 50)    
Moisture  
Dew Point 42 °F    
Average Humidity 54    
Maximum Humidity 84    
Minimum Humidity 36    
Precipitation  
Precipitation 0.00 in - - ()
Sea Level Pressure  
Sea Level Pressure 30.06 in    
Wind  
Wind Speed 10 mph (NE)    
Max Wind Speed 18 mph    
Max Gust Speed 25 mph    
Visibility 10 miles    
Events      
Averages and records for this station are not official NWS values.
T = Trace of Precipitation, MM = Missing Value Source: NWS Daily Summary

Daily Weather History Graph

Daily Weather History Graph

Search for Another Location

Airport:

Trip Planner

Search our weather history database for the weather conditions in past years. The results will help you decide how hot, cold, wet, or windy it might be!

Date:

Astronomy

May. 13, 2013 Rise Set
Actual Time 5:58 AM EDT 8:00 PM EDT
Civil Twilight 5:30 AM EDT 8:28 PM EDT
Nautical Twilight 4:55 AM EDT 9:03 PM EDT
Astronomical Twilight 4:18 AM EDT 9:40 PM EDT
Moon 8:43 AM EDT (5/13) 11:07 PM EDT (5/13)
Length of Visible Light 14h 58m
Length of Day
14h 01m
Waxing Crescent, 12% of the Moon is Illuminated
May 13
Waxing Crescent
May 18
First Quarter
May 25
Full
May 31
Last Quarter
Jun 8
New

Hourly Weather History & Observations

Time (EDT) Temp. Dew Point Humidity Pressure Visibility Wind Dir Wind Speed Gust Speed Precip Events Conditions
12:15 AM 57.9 °F 53.1 °F 84% 30.00 in 10.0 mi NE 3.5 mph - N/A   Clear
12:35 AM 57.4 °F 52.2 °F 83% 30.01 in 10.0 mi Calm Calm - N/A   Scattered Clouds
12:55 AM 58.8 °F 52.9 °F 81% 30.01 in 10.0 mi Calm Calm - N/A   Scattered Clouds
1:15 AM 60.3 °F 53.6 °F 79% 30.01 in 10.0 mi NE 4.6 mph - N/A   Mostly Cloudy
1:35 AM 61.5 °F 53.4 °F 75% 30.01 in 10.0 mi NE 9.2 mph - N/A   Scattered Clouds
1:55 AM 61.2 °F 50.5 °F 68% 30.01 in 10.0 mi NE 12.7 mph 17.3 mph N/A   Clear
2:15 AM 61.0 °F 46.6 °F 59% 30.01 in 10.0 mi NE 9.2 mph - N/A   Clear
2:35 AM 60.3 °F 47.7 °F 63% 30.02 in 10.0 mi ENE 15.0 mph 18.4 mph N/A   Clear
2:55 AM 60.4 °F 47.1 °F 61% 30.01 in 10.0 mi NE 15.0 mph 18.4 mph N/A   Clear
3:15 AM 60.3 °F 45.7 °F 59% 30.02 in 10.0 mi NE 11.5 mph 20.7 mph N/A   Scattered Clouds
3:35 AM 60.1 °F 45.9 °F 59% 30.02 in 10.0 mi NE 12.7 mph 19.6 mph N/A   Scattered Clouds
3:55 AM 59.5 °F 45.9 °F 61% 30.02 in 10.0 mi NE 12.7 mph 20.7 mph N/A   Clear
4:15 AM 59.4 °F 45.5 °F 60% 30.03 in 10.0 mi NE 15.0 mph 21.9 mph N/A   Clear
4:35 AM 59.2 °F 44.6 °F 58% 30.03 in 10.0 mi NE 16.1 mph 21.9 mph N/A   Scattered Clouds
4:55 AM 59.4 °F 45.3 °F 60% 30.03 in 10.0 mi NE 15.0 mph - N/A   Mostly Cloudy
5:15 AM 59.2 °F 44.8 °F 59% 30.04 in 10.0 mi NE 12.7 mph 19.6 mph N/A   Overcast
5:35 AM 59.2 °F 43.9 °F 57% 30.04 in 10.0 mi NE 11.5 mph - N/A   Overcast
5:55 AM 59.2 °F 44.4 °F 58% 30.05 in 10.0 mi NE 16.1 mph 21.9 mph N/A   Overcast
6:15 AM 59.4 °F 42.1 °F 53% 30.06 in 10.0 mi NE 13.8 mph 20.7 mph N/A   Overcast
6:35 AM 59.2 °F 41.7 °F 52% 30.06 in 10.0 mi NE 12.7 mph 18.4 mph N/A   Overcast
6:55 AM 59.4 °F 43.0 °F 55% 30.09 in 10.0 mi NE 10.4 mph - N/A   Mostly Cloudy
7:15 AM 59.2 °F 41.2 °F 51% 30.07 in 10.0 mi NE 15.0 mph 21.9 mph N/A   Mostly Cloudy
7:35 AM 59.5 °F 42.3 °F 53% 30.07 in 10.0 mi NE 11.5 mph 20.7 mph N/A   Scattered Clouds
7:55 AM 60.3 °F 41.9 °F 51% 30.06 in 10.0 mi NE 18.4 mph 25.3 mph N/A   Scattered Clouds
8:15 AM 60.1 °F 37.9 °F 44% 30.08 in 10.0 mi NE 17.3 mph - N/A   Mostly Cloudy
8:35 AM 60.8 °F 39.4 °F 45% 30.09 in 10.0 mi NE 15.0 mph 21.9 mph N/A   Mostly Cloudy
8:55 AM 59.7 °F 41.9 °F 52% 30.09 in 10.0 mi NE 15.0 mph 20.7 mph N/A   Overcast
9:15 AM 59.5 °F 41.5 °F 51% 30.09 in 10.0 mi NE 16.1 mph 23.0 mph N/A   Overcast
9:35 AM 60.4 °F 40.3 °F 47% 30.09 in 10.0 mi NNE 16.1 mph 23.0 mph N/A   Mostly Cloudy
9:55 AM 60.8 °F 38.1 °F 43% 30.09 in 10.0 mi NE 16.1 mph 21.9 mph N/A   Scattered Clouds
10:15 AM 61.5 °F 40.1 °F 45% 30.09 in 10.0 mi NE 16.1 mph 20.7 mph N/A   Mostly Cloudy
10:35 AM 60.1 °F 38.8 °F 45% 30.10 in 10.0 mi NE 13.8 mph - N/A   Mostly Cloudy
10:55 AM 61.2 °F 40.3 °F 46% 30.09 in 10.0 mi NNE 13.8 mph 21.9 mph N/A   Mostly Cloudy
11:15 AM 59.9 °F 38.5 °F 45% 30.10 in 10.0 mi NNE 13.8 mph 21.9 mph N/A   Mostly Cloudy
11:35 AM 60.4 °F 36.7 °F 41% 30.10 in 10.0 mi NE 12.7 mph 20.7 mph N/A   Mostly Cloudy
11:55 AM 61.3 °F 35.4 °F 38% 30.09 in 10.0 mi NE 13.8 mph 20.7 mph N/A   Mostly Cloudy
12:15 PM 61.2 °F 34.2 °F 36% 30.09 in 10.0 mi NNE 16.1 mph 19.6 mph N/A   Scattered Clouds
12:35 PM 61.9 °F 36.9 °F 39% 30.09 in 10.0 mi NNE 13.8 mph 19.6 mph N/A   Scattered Clouds
12:55 PM 62.4 °F 36.5 °F 38% 30.09 in 10.0 mi NE 12.7 mph 20.7 mph N/A   Mostly Cloudy
1:15 PM 61.0 °F 33.4 °F 36% 30.09 in 10.0 mi NE 12.7 mph 18.4 mph N/A   Overcast
1:35 PM 62.2 °F 38.5 °F 41% 30.08 in 10.0 mi NE 13.8 mph 18.4 mph N/A   Scattered Clouds
1:55 PM 62.4 °F 37.2 °F 39% 30.07 in 10.0 mi ENE 13.8 mph 17.3 mph N/A   Scattered Clouds
2:15 PM 62.1 °F 38.7 °F 42% 30.07 in 10.0 mi NNE 12.7 mph 21.9 mph N/A   Clear
2:35 PM 62.4 °F 38.5 °F 41% 30.06 in 10.0 mi NNE 12.7 mph - N/A   Clear
2:55 PM 61.9 °F 39.6 °F 44% 30.06 in 10.0 mi NNE 11.5 mph 18.4 mph N/A   Clear
3:15 PM 61.2 °F 39.0 °F 44% 30.04 in 10.0 mi NNE 13.8 mph 20.7 mph N/A   Clear
3:35 PM 61.5 °F 40.5 °F 46% 30.04 in 10.0 mi NNE 9.2 mph - N/A   Clear
4:35 PM 61.7 °F 39.9 °F 45% 30.03 in 10.0 mi NE 13.8 mph - N/A   Clear
4:55 PM 61.3 °F 39.7 °F 45% 30.03 in 10.0 mi NE 11.5 mph 16.1 mph N/A   Clear
5:15 PM 60.6 °F 39.2 °F 45% 30.03 in 10.0 mi ENE 13.8 mph - N/A   Clear
5:35 PM 59.9 °F 39.0 °F 46% 30.03 in 10.0 mi ENE 10.4 mph - N/A   Clear
5:55 PM 59.4 °F 39.2 °F 47% 30.03 in 10.0 mi NE 11.5 mph - N/A   Clear
6:15 PM 59.2 °F 39.4 °F 48% 30.03 in 10.0 mi NE 9.2 mph - N/A   Clear
6:35 PM 58.8 °F 39.6 °F 49% 30.03 in 10.0 mi NE 10.4 mph - N/A   Clear
6:55 PM 58.1 °F 39.4 °F 50% 30.04 in 10.0 mi NE 8.1 mph - N/A   Clear
7:35 PM 56.8 °F 39.7 °F 53% 30.05 in 10.0 mi NE 6.9 mph - N/A   Scattered Clouds
8:15 PM 55.2 °F 40.1 °F 57% 30.07 in 10.0 mi ENE 5.8 mph - N/A   Scattered Clouds
8:35 PM 54.1 °F 40.5 °F 60% 30.08 in 10.0 mi ENE 6.9 mph - N/A   Clear
8:55 PM 54.7 °F 40.1 °F 58% 30.09 in 10.0 mi East 4.6 mph - N/A   Clear
9:15 PM 54.3 °F 40.1 °F 59% 30.10 in 10.0 mi Calm Calm - N/A   Clear
9:35 PM 53.6 °F 39.6 °F 59% 30.11 in 10.0 mi ENE 3.5 mph - N/A   Clear
9:55 PM 54.7 °F 40.1 °F 58% 30.11 in 10.0 mi East 3.5 mph - N/A   Scattered Clouds
10:15 PM 52.5 °F 41.2 °F 65% 30.13 in 10.0 mi Calm Calm - N/A   Scattered Clouds
10:35 PM 53.4 °F 41.7 °F 65% 30.13 in 10.0 mi East 5.8 mph - N/A   Mostly Cloudy
10:55 PM 53.6 °F 40.8 °F 62% 30.14 in 10.0 mi Calm Calm - N/A   Clear
11:15 PM 53.4 °F 41.7 °F 65% 30.14 in 10.0 mi Calm Calm - N/A   Mostly Cloudy
11:35 PM 54.5 °F 41.5 °F 62% 30.15 in 10.0 mi Calm Calm - N/A   Mostly Cloudy
11:55 PM 51.4 °F 42.4 °F 71% 30.14 in 10.0 mi Calm Calm - N/A   Clear